Location: Munderkingen
(48.2395°N, 9.6433°E)
Time: 08:16:44
(UTC+01:00)

ISS - Pass Details

Date: 12 January 2018
Orbit: 401 x 406 km, 51.6° (Epoch: 17 January)

Event Time Altitude Azimuth Distance (km) Brightness Sun altitude
Exits shadow 06:24:54 44° 257° (WSW) 569 -3.5 -16.7°
Maximum altitude 06:25:35 56° 209° (SSW) 489 -3.6 -16.6°
Drops below altitude 10° 06:28:48 10° 130° (SE) 1,461 0.0 -16.1°
Sets 06:30:53 0° 126° (SE) 2,319 1.4 -15.8°
